Regional Weather Roundup
Issued by NWS

Home | Current Version | Previous Version | Graphics & Text | Print | Product List | Glossary On
Versions: 1 2 3 4 5 6 7 8 9 10 11 12 13 14 15 16 17 18 19 20 21 22 23 24 25 26 27 28 29 30 31 32 33 34 35 36 37 38 39 40 41 42 43 44 45 46 47 48 49 50
000
ASUS43 KIND 190009
RWRIN

WEATHER ROUNDUP FOR INDIANA
NATIONAL WEATHER SERVICE INDIANAPOLIS IN
800 PM EDT WED OCT 18 2017

NOTE: "FAIR" INDICATES FEW OR NO CLOUDS BELOW 12,000 FEET WITH NO
SIGNIFICANT WEATHER AND/OR OBSTRUCTIONS TO VISIBILITY.

* - STATION DOES NOT REPORT WEATHER SUCH AS PRECIPITATION OR FOG.

+ - STATION NOT QUALITY CONTROLLED BY THE NATIONAL WEATHER SERVICE.
    USE DATA WITH CAUTION...ESPECIALLY DEWPOINT AND RELATIVE
    HUMIDITY OBSERVATIONS.

INZ001>003-010>013-019-020-190100-
NORTHWEST INDIANA

CITY           SKY/WX    TMP DP  RH WIND       PRES   REMARKS
GARY /AIRPORT/ CLEAR     66  37  34 S10       30.06R
KNOX *+        CLEAR     59  41  51 S7        30.09R
LA PORTE +     CLEAR     61  41  48 S7        30.09S
6HR MIN TEMP:  61; 6HR MAX TEMP:  69;

MICHIGAN CITY+ CLEAR     61  41  48 S9        30.07S
MONTICELLO +   CLEAR     61  41  48 S6        30.12R
6HR MIN TEMP:  60; 6HR MAX TEMP:  69;

RENSSELAER +   CLEAR     61  34  36 S8        30.10S
VALPARAISO     CLEAR     61  43  51 S8        30.08S
6HR MIN TEMP:  61; 6HR MAX TEMP:  71;


$$

LMZ046-743>745-190100-
SOUTHERN LAKE MICHIGAN

STATION/POSITION TIME  TEMP    WIND        PRES    WAVE
                       AIR SEA DIR/SP/G            HT
                 (UTC) (F)     (DEG/KT/KT) (MB)    (FT)
BURNS HARBOR     2340   65     190/ 13/ 16 1017.9S
MICHIGAN CITY    2340   64     170/ 12/ 14   N/A
5NW MICH CITY    0000   63 58  190/ 12/ 17   N/A     2

$$

INZ004-005-014>016-021>024-190100-
NORTH CENTRAL INDIANA

CITY           SKY/WX    TMP DP  RH WIND       PRES   REMARKS
ELKHART        CLEAR     61  39  44 S6        30.09R
GOSHEN         CLEAR     60  40  47 S10       30.10S
6HR MIN TEMP:  59; 6HR MAX TEMP:  68;

LOGANSPORT +   CLEAR     52  41  66 S7        30.14R
PERU/GRISSOM   CLEAR     55  43  64 S7        30.13R
6HR MIN TEMP:  55; 6HR MAX TEMP:  69;

SOUTH BEND     CLEAR     59  41  51 S10       30.09S
6HR MIN TEMP:  59; 6HR MAX TEMP:  68;

WARSAW +       CLEAR     61  41  48 CALM      30.12R

$$

INZ006>009-017-018-025>027-190100-
NORTHEAST INDIANA

CITY           SKY/WX    TMP DP  RH WIND       PRES   REMARKS
AUBURN +       CLEAR     57  39  51 CALM      30.13S
FORT WAYNE     CLEAR     57  39  51 S9        30.14S
6HR MIN TEMP:  57; 6HR MAX TEMP:  70;

HUNTINGTON +   CLEAR     59  40  49 CALM      30.14R
6HR MIN TEMP:  59; 6HR MAX TEMP:  68;

KENDALLVILLE + CLEAR     58  40  51 S7        30.12S

$$

INZ028-029-035-036-043>045-051>053-190100-
WEST CENTRAL INDIANA

CITY           SKY/WX    TMP DP  RH WIND       PRES   REMARKS
GREENCASTLE +  CLEAR     55  43  62 S3        30.16S
LAFAYETTE      CLEAR     60  44  55 S3        30.12S
6HR MIN TEMP:  60; 6HR MAX TEMP:  69;

TERRE HAUTE    CLEAR     59  44  57 S5        30.15S
6HR MIN TEMP:  59; 6HR MAX TEMP:  70;


$$

INZ030>032-037>040-046>048-054>057-064-065-190100-
CENTRAL INDIANA

CITY           SKY/WX    TMP DP  RH WIND       PRES   REMARKS
CP ATTERBURY + CLEAR     54  45  71 S5        30.18S
COLUMBUS       CLEAR     55  39  54 S5        30.18F
FRANKFORT +    PTCLDY    55  45  68 CALM      30.16R
6HR MIN TEMP:  55; 6HR MAX TEMP:  72;

GREENWOOD *+   CLEAR    N/A N/A N/A S6        30.17S
INDIANAPOLIS   CLEAR     61  44  53 S8        30.16S
6HR MIN TEMP:  61; 6HR MAX TEMP:  69;

-EAGLE CREEK   CLEAR     62  43  49 S5        30.15S
6HR MIN TEMP:  62; 6HR MAX TEMP:  69;

KOKOMO +       CLEAR     56  44  64 S7        30.14S
6HR MIN TEMP:  55; 6HR MAX TEMP:  69;

MARION +       CLEAR     54  43  66 S6        30.15S
MT COMFORT *+  CLEAR     59  48  67 S6        30.17S
SHELBYVILLE    CLEAR     60  42  51 S7        30.17S
6HR MIN TEMP:  60; 6HR MAX TEMP:  71;

ZIONSVILLE +   CLEAR     58  44  58 S9        30.16R
6HR MIN TEMP:  57; 6HR MAX TEMP:  68;


$$

INZ033-034-041-042-049-050-058-059-190100-
EAST CENTRAL INDIANA

CITY           SKY/WX    TMP DP  RH WIND       PRES   REMARKS
MUNCIE         CLEAR     62  42  47 S7        30.15F
6HR MIN TEMP:  62; 6HR MAX TEMP:  71;

RICHMOND +     CLEAR     50  41  71 S7        30.20S

$$

INZ060-061-067>069-081>083-085>088-190100-
SOUTHWEST INDIANA

CITY           SKY/WX    TMP DP  RH WIND       PRES   REMARKS
EVANSVILLE     CLEAR     62  46  55 S6        30.18S
6HR MIN TEMP:  62; 6HR MAX TEMP:  71;

HUNTINGBURG +  CLEAR     60  47  61 SE5       30.19S
6HR MIN TEMP:  60; 6HR MAX TEMP:  70;

WASHINGTON +   CLEAR     58  42  57 S6        30.17S
6HR MIN TEMP:  56; 6HR MAX TEMP:  71;


$$

INZ062-063-066-070>080-084-089>092-190100-
SOUTH CENTRAL AND SOUTHEAST INDIANA

CITY           SKY/WX    TMP DP  RH WIND       PRES   REMARKS
BLOOMINGTON    CLEAR     59  44  57 S6        30.17S
6HR MIN TEMP:  59; 6HR MAX TEMP:  71;

MADISON *+     CLEAR     54  45  71 CALM      30.23S
NORTH VERNON + CLEAR     55  45  67 SE5       30.20S
SEYMOUR +      CLEAR     59  43  55 S6        30.19S

$$





USA.gov is the U.S. government's official web portal to all federal, state and local government web resources and services.